Tekamah, NE

3:23 PM CDT on April 28, 2017 (GMT -0500)
Tekamah

Weather History for KTQE - March, 2014

Change the Weather History Date:

Friday, March 7, 2014

  Actual Average Record
Temperature  
Mean Temperature 34 °F -  
Max Temperature 41 °F 46 °F 78 °F (2016)
Min Temperature 26 °F 21 °F -3 °F (1982)
Degree Days  
Heating Degree Days 32    
Moisture  
Dew Point 25 °F    
Average Humidity 72    
Maximum Humidity 86    
Minimum Humidity 59    
Precipitation  
Precipitation 0.00 in - - ()
Sea Level Pressure  
Sea Level Pressure 30.00 in    
Wind  
Wind Speed 17 mph (North)    
Max Wind Speed 26 mph    
Max Gust Speed 33 mph    
Visibility 7 miles    
Events Rain , Snow    
Averages and records for this station are not official NWS values.
T = Trace of Precipitation, MM = Missing Value Source: NWS Daily Summary

Daily Weather History Graph

Daily Weather History Graph

Search for Another Location

Airport or City:

Trip Planner

Search our weather history database for the weather conditions in past years. The results will help you decide how hot, cold, wet, or windy it might be!

Date:

Astronomy

Mar. 07, 2014 Rise Set
Actual Time 6:49 AM CST 6:22 PM CST
Civil Twilight 6:22 AM CST 6:50 PM CST
Nautical Twilight 5:49 AM CST 7:22 PM CST
Astronomical Twilight 5:17 AM CST 7:54 PM CST
Moon 10:38 AM CST (3/7) 12:33 AM CST (3/7)
Length of Visible Light 12h 27m
Length of Day
11h 32m
Waxing Crescent, 42% of the Moon is Illuminated
Mar 7
Waxing Crescent
Mar 8
First Quarter
Mar 16
Full
Mar 23
Last Quarter
Mar 30
New

Hourly Weather History & Observations

Time (CST) Temp. Windchill Dew Point Humidity Pressure Visibility Wind Dir Wind Speed Gust Speed Precip Events Conditions
12:54 AM 34.0 °F 25.0 °F 30.0 °F 85% 29.79 in 5.0 mi South 12.7 mph - N/A   Clear
1:54 AM 34.0 °F 25.0 °F 30.0 °F 85% 29.78 in 5.0 mi South 12.7 mph - N/A   Clear
2:54 AM 35.1 °F 25.9 °F 30.0 °F 82% 29.76 in 5.0 mi South 13.8 mph - N/A   Haze
3:54 AM 35.1 °F 26.9 °F 30.0 °F 82% 29.76 in 5.0 mi South 11.5 mph - N/A   Haze
4:54 AM 35.1 °F 27.9 °F 30.9 °F 85% 29.78 in 5.0 mi SSE 9.2 mph - N/A   Clear
5:54 AM 37.0 °F 29.8 °F 33.1 °F 86% 29.78 in 5.0 mi SSW 10.4 mph - N/A   Clear
6:54 AM 35.1 °F 30.1 °F 30.9 °F 85% 29.80 in 5.0 mi SW 5.8 mph - N/A   Clear
7:54 AM 37.9 °F 35.5 °F 33.1 °F 83% 29.83 in 4.0 mi West 3.5 mph - N/A   Haze
8:54 AM 41.0 °F 33.1 °F 34.0 °F 76% 29.87 in 7.0 mi North 15.0 mph - N/A   Clear
9:31 AM 39.9 °F 30.2 °F 32.0 °F 73% 29.88 in 5.0 mi North 20.7 mph 31.1 mph N/A   Haze
9:54 AM 39.9 °F 29.2 °F 32.0 °F 73% 29.90 in 6.0 mi North 25.3 mph - N/A   Haze
10:54 AM 41.0 °F 30.9 °F 32.0 °F 70% 29.92 in 6.0 mi North 24.2 mph 33.4 mph N/A   Haze
11:54 AM 39.0 °F 27.8 °F 30.0 °F 70% 29.96 in 10.0 mi North 26.5 mph - N/A   Overcast
12:54 PM 37.9 °F 27.3 °F 27.0 °F 65% 29.99 in 10.0 mi North 21.9 mph 31.1 mph N/A   Mostly Cloudy
1:25 PM 37.9 °F 26.3 °F 26.1 °F 62% 29.97 in 10.0 mi North 26.5 mph - N/A   Scattered Clouds
1:47 PM 36.0 °F 24.2 °F 26.1 °F 67% 29.97 in 8.0 mi North 24.2 mph 29.9 mph N/A   Mostly Cloudy
1:54 PM 36.0 °F 25.3 °F 26.1 °F 67% 30.00 in 9.0 mi North 19.6 mph 32.2 mph 0.00 in Rain Light Rain
2:54 PM 36.0 °F 24.7 °F 24.1 °F 62% 30.01 in 9.0 mi North 21.9 mph 28.8 mph 0.00 in   Mostly Cloudy
3:11 PM 35.1 °F 22.7 °F 24.1 °F 64% 29.99 in 8.0 mi North 25.3 mph - N/A   Scattered Clouds
3:54 PM 34.0 °F 21.0 °F 21.0 °F 59% 30.04 in 9.0 mi North 26.5 mph - N/A   Partly Cloudy
4:54 PM 32.0 °F 18.4 °F 19.9 °F 61% 30.07 in 10.0 mi North 26.5 mph - N/A   Partly Cloudy
5:54 PM 30.9 °F 17.5 °F 19.0 °F 61% 30.10 in 10.0 mi North 24.2 mph 32.2 mph N/A   Overcast
6:54 PM 30.0 °F 16.0 °F 19.0 °F 64% 30.14 in 10.0 mi North 25.3 mph 29.9 mph N/A   Overcast
7:36 PM 28.0 °F 15.7 °F 21.9 °F 78% 30.15 in 2.0 mi North 17.3 mph - 0.00 in Snow Light Snow
7:48 PM 28.4 °F 15.8 °F 21.2 °F 74% 30.15 in 4.0 mi North 18.4 mph - 0.00 in Snow Light Snow
7:49 PM 28.4 °F 15.8 °F 21.2 °F 74% 30.15 in 5.0 mi North 18.4 mph - 0.00 in Snow Light Snow
7:54 PM 28.0 °F 15.7 °F 21.0 °F 75% 30.17 in 5.0 mi North 17.3 mph - 0.00 in   Haze
8:54 PM 28.0 °F 16.1 °F 21.9 °F 78% 30.18 in 10.0 mi North 16.1 mph - N/A   Overcast
9:54 PM 28.0 °F 14.9 °F 19.0 °F 69% 30.20 in 9.0 mi North 19.6 mph 27.6 mph 0.00 in   Overcast
10:54 PM 27.0 °F 13.5 °F 18.0 °F 69% 30.21 in 10.0 mi North 19.6 mph 27.6 mph N/A   Overcast
11:38 PM 26.1 °F 12.0 °F 17.1 °F 69% 30.21 in 10.0 mi North 20.7 mph - N/A   Overcast
11:47 PM 26.1 °F 10.7 °F 17.1 °F 69% 30.21 in 10.0 mi North 25.3 mph 29.9 mph N/A   Overcast
11:54 PM 26.1 °F 10.4 °F 16.0 °F 66% 30.24 in 10.0 mi North 26.5 mph - N/A   Overcast